A7ABI EGLC-EGCC

Flight info

Callsign A7ABI
Flight time 0h 47m
Altitude 18000
Route DCT
Aircraft SF50/L-SBDGRWY/LB2U2

Departure

Time 2026-05-05 12:53
Airport London City Airport (EGLC)

Arrival

Time 2026-05-05 13:40
Airport Manchester Airport (EGCC)
Time Latitude Longitude Altitude Speed Heading
2026-05-05 12:33 51.50438 0.04709 23 ft 0 kts 186°
2026-05-05 12:48 51.50452 0.04585 20 ft 13 kts 294°
2026-05-05 12:48 51.50484 0.04472 19 ft 6 kts 300°
2026-05-05 12:49 51.50487 0.04463 19 ft 0 kts 310°
2026-05-05 12:51 51.50491 0.04457 19 ft 3 kts 322°
2026-05-05 12:52 51.50516 0.04441 19 ft 5 kts 349°
2026-05-05 12:52 51.50560 0.04451 20 ft 5 kts 39°
2026-05-05 12:52 51.50560 0.04481 21 ft 0 kts 99°
2026-05-05 12:52 51.50553 0.04643 23 ft 49 kts 94°
2026-05-05 12:53 51.50518 0.05597 110 ft 113 kts 94°
2026-05-05 12:53 51.50463 0.06964 624 ft 130 kts 92°
2026-05-05 12:53 51.50460 0.08365 1642 ft 121 kts 76°
2026-05-05 12:53 51.50877 0.09527 2380 ft 123 kts 43°
2026-05-05 12:54 51.52706 0.10761 2391 ft 168 kts 359°
2026-05-05 12:54 51.53926 0.10685 2277 ft 181 kts
2026-05-05 12:54 51.55266 0.10645 2162 ft 204 kts
2026-05-05 12:55 51.56781 0.10593 2048 ft 232 kts
2026-05-05 12:55 51.58435 0.10556 1925 ft 240 kts
2026-05-05 12:55 51.60138 0.10515 1795 ft 246 kts
2026-05-05 12:55 51.61852 0.10474 1706 ft 248 kts
2026-05-05 12:56 51.63561 0.10440 1711 ft 244 kts
2026-05-05 12:56 51.65253 0.10401 1702 ft 245 kts
2026-05-05 12:56 51.66812 0.10361 1702 ft 245 kts
2026-05-05 12:56 51.68472 0.09703 1695 ft 251 kts 332°
2026-05-05 12:57 51.69868 0.08010 1693 ft 252 kts 322°
2026-05-05 12:57 51.71184 0.06107 1697 ft 253 kts 320°
2026-05-05 12:57 51.72443 0.04348 1884 ft 225 kts 321°
2026-05-05 12:57 51.73555 0.02769 2302 ft 199 kts 321°
2026-05-05 12:58 51.74501 0.01341 2791 ft 175 kts 321°
2026-05-05 12:58 51.75359 0.00028 3264 ft 168 kts 321°
2026-05-05 12:58 51.76230 -0.01252 3809 ft 171 kts 320°
2026-05-05 12:58 51.77109 -0.02546 4312 ft 171 kts 321°
2026-05-05 12:59 51.78004 -0.03843 4822 ft 175 kts 321°
2026-05-05 12:59 51.78929 -0.05151 5344 ft 177 kts 321°
2026-05-05 12:59 51.79851 -0.06460 5852 ft 176 kts 320°
2026-05-05 13:00 51.81716 -0.09065 6854 ft 179 kts 321°
2026-05-05 13:00 51.82670 -0.10379 7349 ft 180 kts 320°
2026-05-05 13:01 51.85551 -0.14359 8855 ft 183 kts 321°
2026-05-05 13:01 51.86533 -0.15684 9383 ft 184 kts 321°
2026-05-05 13:01 51.87517 -0.17012 9907 ft 184 kts 321°
2026-05-05 13:01 51.88518 -0.18352 10386 ft 190 kts 321°
2026-05-05 13:02 51.89542 -0.19717 10871 ft 190 kts 321°
2026-05-05 13:02 51.90556 -0.21073 11371 ft 189 kts 321°
2026-05-05 13:02 51.91578 -0.22441 11871 ft 193 kts 321°
2026-05-05 13:02 51.92625 -0.23841 12387 ft 195 kts 321°
2026-05-05 13:03 51.93668 -0.25234 12900 ft 195 kts 321°
2026-05-05 13:03 51.94723 -0.26638 13424 ft 200 kts 321°
2026-05-05 13:03 51.95800 -0.28068 13936 ft 201 kts 321°
2026-05-05 13:03 51.96886 -0.29502 14415 ft 202 kts 321°
2026-05-05 13:04 51.97981 -0.30941 14902 ft 204 kts 321°
2026-05-05 13:04 51.99091 -0.32392 15395 ft 206 kts 321°
2026-05-05 13:04 51.99833 -0.33361 15726 ft 207 kts 321°
2026-05-05 13:04 52.00961 -0.34826 16233 ft 208 kts 320°
2026-05-05 13:05 52.02101 -0.36293 16747 ft 210 kts 321°
2026-05-05 13:05 52.03251 -0.37772 17271 ft 211 kts 320°
2026-05-05 13:05 52.04794 -0.39720 17946 ft 215 kts 320°
2026-05-05 13:05 52.06044 -0.41267 17971 ft 236 kts 321°
2026-05-05 13:06 52.06948 -0.42390 17978 ft 247 kts 320°
2026-05-05 13:06 52.08346 -0.44127 17976 ft 258 kts 321°
2026-05-05 13:06 52.09791 -0.45941 17969 ft 267 kts 320°
2026-05-05 13:06 52.11281 -0.47806 17976 ft 273 kts 321°
2026-05-05 13:07 52.12801 -0.49719 17971 ft 279 kts 321°
2026-05-05 13:07 52.14331 -0.51641 17978 ft 284 kts 320°
2026-05-05 13:07 52.15934 -0.53656 17976 ft 291 kts 320°
2026-05-05 13:07 52.17535 -0.55654 17978 ft 295 kts 321°
2026-05-05 13:08 52.19173 -0.57703 17979 ft 298 kts 321°
2026-05-05 13:08 52.20820 -0.59782 17977 ft 300 kts 321°
2026-05-05 13:08 52.22481 -0.61881 17971 ft 302 kts 321°
2026-05-05 13:08 52.24138 -0.63999 17980 ft 303 kts 320°
2026-05-05 13:09 52.25802 -0.66119 17981 ft 304 kts 321°
2026-05-05 13:09 52.27475 -0.68238 17982 ft 304 kts 321°
2026-05-05 13:09 52.29153 -0.70364 17979 ft 305 kts 320°
2026-05-05 13:09 52.30833 -0.72473 17981 ft 305 kts 321°
2026-05-05 13:10 52.32498 -0.74565 17982 ft 305 kts 321°
2026-05-05 13:10 52.34181 -0.76676 17983 ft 305 kts 321°
2026-05-05 13:10 52.35860 -0.78787 17984 ft 304 kts 321°
2026-05-05 13:10 52.37545 -0.80901 17984 ft 304 kts 321°
2026-05-05 13:11 52.39225 -0.83011 17984 ft 304 kts 321°
2026-05-05 13:11 52.40902 -0.85119 17984 ft 304 kts 321°
2026-05-05 13:11 52.42582 -0.87228 17984 ft 304 kts 321°
2026-05-05 13:11 52.44265 -0.89345 17984 ft 304 kts 321°
2026-05-05 13:12 52.45942 -0.91456 17984 ft 304 kts 321°
2026-05-05 13:12 52.47625 -0.93577 17979 ft 304 kts 320°
2026-05-05 13:12 52.49301 -0.95692 17988 ft 304 kts 320°
2026-05-05 13:12 52.50958 -0.97787 17991 ft 304 kts 320°
2026-05-05 13:13 52.52634 -0.99907 18002 ft 304 kts 320°
2026-05-05 13:13 52.54312 -1.02004 18004 ft 303 kts 320°
2026-05-05 13:13 52.55995 -1.04098 18006 ft 302 kts 320°
2026-05-05 13:13 52.57675 -1.06182 18010 ft 302 kts 320°
2026-05-05 13:14 52.59349 -1.08261 18012 ft 301 kts 320°
2026-05-05 13:14 52.61026 -1.10341 18014 ft 301 kts 320°
2026-05-05 13:14 52.62697 -1.12417 18016 ft 301 kts 320°
2026-05-05 13:14 52.64370 -1.14497 18017 ft 301 kts 320°
2026-05-05 13:15 52.66020 -1.16552 18017 ft 301 kts 320°
2026-05-05 13:15 52.67689 -1.18634 18018 ft 301 kts 320°
2026-05-05 13:15 52.69358 -1.20719 18019 ft 301 kts 320°
2026-05-05 13:15 52.71036 -1.22819 18020 ft 301 kts 320°
2026-05-05 13:16 52.72685 -1.24883 18020 ft 301 kts 320°
2026-05-05 13:16 52.74376 -1.26996 17997 ft 301 kts 320°
2026-05-05 13:16 52.76023 -1.29055 18007 ft 301 kts 320°
2026-05-05 13:16 52.77701 -1.31122 18000 ft 301 kts 320°
2026-05-05 13:17 52.79386 -1.33177 18000 ft 300 kts 320°
2026-05-05 13:17 52.81079 -1.35236 17999 ft 300 kts 320°
2026-05-05 13:17 52.82767 -1.37288 18000 ft 300 kts 320°
2026-05-05 13:17 52.84431 -1.39314 18000 ft 300 kts 320°
2026-05-05 13:18 52.86117 -1.41370 17999 ft 300 kts 320°
2026-05-05 13:18 52.87799 -1.43422 17999 ft 300 kts 320°
2026-05-05 13:18 52.89457 -1.45447 17999 ft 300 kts 320°
2026-05-05 13:18 52.91186 -1.47449 17992 ft 301 kts 327°
2026-05-05 13:19 52.93101 -1.48762 17988 ft 303 kts 338°
2026-05-05 13:19 52.95137 -1.49721 17982 ft 306 kts 347°
2026-05-05 13:19 52.97276 -1.49885 17986 ft 309 kts 358°
2026-05-05 13:19 52.99427 -1.49730 17990 ft 310 kts 360°
2026-05-05 13:20 53.01584 -1.49512 18000 ft 311 kts 360°
2026-05-05 13:20 53.03749 -1.49259 18001 ft 312 kts
2026-05-05 13:20 53.05914 -1.49002 18002 ft 312 kts
2026-05-05 13:20 53.08081 -1.48743 18004 ft 312 kts
2026-05-05 13:21 53.10252 -1.48483 17990 ft 313 kts
2026-05-05 13:21 53.12426 -1.48222 17825 ft 316 kts
2026-05-05 13:21 53.14655 -1.47964 17033 ft 321 kts
2026-05-05 13:21 53.16864 -1.47724 16260 ft 315 kts
2026-05-05 13:22 53.19042 -1.47501 15499 ft 311 kts
2026-05-05 13:22 53.21159 -1.47299 14771 ft 306 kts
2026-05-05 13:22 53.23272 -1.47113 14048 ft 301 kts
2026-05-05 13:22 53.25332 -1.46765 13273 ft 298 kts 12°
2026-05-05 13:23 53.27121 -1.45027 12455 ft 299 kts 40°
2026-05-05 13:23 53.28508 -1.42472 11680 ft 295 kts 49°
2026-05-05 13:23 53.29787 -1.39812 10919 ft 292 kts 50°
2026-05-05 13:23 53.31054 -1.37192 10195 ft 287 kts 46°
2026-05-05 13:24 53.32589 -1.35087 9421 ft 284 kts 33°
2026-05-05 13:24 53.34210 -1.33313 8642 ft 278 kts 31°
2026-05-05 13:24 53.35818 -1.31609 7866 ft 259 kts 31°
2026-05-05 13:24 53.37258 -1.30095 7123 ft 236 kts 31°
2026-05-05 13:25 53.38599 -1.28716 6385 ft 217 kts 31°
2026-05-05 13:25 53.39859 -1.27432 5601 ft 208 kts 30°
2026-05-05 13:25 53.41087 -1.26181 4829 ft 205 kts 30°
2026-05-05 13:25 53.42355 -1.25158 4070 ft 202 kts 10°
2026-05-05 13:26 53.43677 -1.25063 3979 ft 188 kts 359°
2026-05-05 13:26 53.45042 -1.25047 3987 ft 192 kts
2026-05-05 13:26 53.46316 -1.25022 3982 ft 174 kts
2026-05-05 13:26 53.47469 -1.25122 3969 ft 161 kts 343°
2026-05-05 13:27 53.48444 -1.26033 3973 ft 161 kts 328°
2026-05-05 13:27 53.49355 -1.27126 3966 ft 161 kts 312°
2026-05-05 13:27 53.49601 -1.28934 3974 ft 169 kts 258°
2026-05-05 13:27 53.49168 -1.30777 3983 ft 172 kts 250°
2026-05-05 13:28 53.48703 -1.32646 3991 ft 172 kts 250°
2026-05-05 13:28 53.48263 -1.34498 3983 ft 170 kts 250°
2026-05-05 13:28 53.47829 -1.36308 3982 ft 169 kts 250°
2026-05-05 13:28 53.47397 -1.38144 3986 ft 170 kts 250°
2026-05-05 13:29 53.46962 -1.39981 3982 ft 169 kts 250°
2026-05-05 13:29 53.46506 -1.41817 3983 ft 172 kts 249°
2026-05-05 13:29 53.46062 -1.43634 3985 ft 171 kts 250°
2026-05-05 13:29 53.45376 -1.46437 3987 ft 170 kts 251°
2026-05-05 13:30 53.38051 -1.75896 4055 ft 168 kts 250°
2026-05-05 13:30 53.32887 -1.96530 4006 ft 173 kts 250°
2026-05-05 13:30 53.32418 -1.98360 3998 ft 170 kts 250°
2026-05-05 13:30 53.31956 -2.00185 3997 ft 172 kts 250°
2026-05-05 13:31 53.31491 -2.02031 4006 ft 172 kts 250°
2026-05-05 13:31 53.31034 -2.03878 4005 ft 173 kts 249°
2026-05-05 13:31 53.30557 -2.05729 4008 ft 172 kts 249°
2026-05-05 13:31 53.30111 -2.07526 4008 ft 169 kts 250°
2026-05-05 13:32 53.29658 -2.09351 4007 ft 170 kts 250°
2026-05-05 13:32 53.29211 -2.11188 4016 ft 171 kts 250°
2026-05-05 13:32 53.28749 -2.13065 3833 ft 177 kts 249°
2026-05-05 13:32 53.28265 -2.14928 3613 ft 173 kts 249°
2026-05-05 13:33 53.27794 -2.16755 3378 ft 169 kts 251°
2026-05-05 13:33 53.27335 -2.18531 3139 ft 162 kts 250°
2026-05-05 13:33 53.26883 -2.20236 2897 ft 158 kts 250°
2026-05-05 13:33 53.26425 -2.21893 2657 ft 156 kts 250°
2026-05-05 13:34 53.25979 -2.23506 2505 ft 152 kts 250°
2026-05-05 13:34 53.25548 -2.25103 2498 ft 153 kts 249°
2026-05-05 13:34 53.25105 -2.26703 2502 ft 147 kts 250°
2026-05-05 13:34 53.24708 -2.28235 2494 ft 142 kts 250°
2026-05-05 13:35 53.24306 -2.29713 2499 ft 139 kts 249°
2026-05-05 13:35 53.23900 -2.31182 2499 ft 140 kts 249°
2026-05-05 13:35 53.23512 -2.32676 2510 ft 141 kts 250°
2026-05-05 13:35 53.23231 -2.34234 2435 ft 141 kts 272°
2026-05-05 13:36 53.23566 -2.35685 2409 ft 132 kts 311°
2026-05-05 13:36 53.24258 -2.36699 2228 ft 129 kts 329°
2026-05-05 13:36 53.24971 -2.37139 2230 ft 104 kts 346°
2026-05-05 13:36 53.25675 -2.37351 2035 ft 103 kts 353°
2026-05-05 13:37 53.26372 -2.37429 1801 ft 95 kts 356°
2026-05-05 13:37 53.26971 -2.37439 1575 ft 85 kts
2026-05-05 13:37 53.27614 -2.37336 1453 ft 99 kts
2026-05-05 13:37 53.28315 -2.37078 1300 ft 107 kts 11°
2026-05-05 13:38 53.29034 -2.36703 1083 ft 109 kts 14°
2026-05-05 13:38 53.29777 -2.36510 990 ft 106 kts
2026-05-05 13:38 53.30447 -2.36157 907 ft 99 kts 21°
2026-05-05 13:38 53.30992 -2.35443 812 ft 104 kts 39°
2026-05-05 13:39 53.31469 -2.34589 796 ft 97 kts 43°
2026-05-05 13:39 53.31903 -2.33754 726 ft 97 kts 48°
2026-05-05 13:39 53.32319 -2.32850 571 ft 100 kts 49°
2026-05-05 13:39 53.32766 -2.31976 460 ft 101 kts 45°
2026-05-05 13:40 53.33204 -2.31029 277 ft 104 kts 43°
2026-05-05 13:40 53.33641 -2.30134 239 ft 93 kts 47°
2026-05-05 13:40 53.34009 -2.29355 239 ft 64 kts 41°
2026-05-05 13:40 53.34238 -2.28929 244 ft 38 kts 52°
2026-05-05 13:41 53.34380 -2.28662 246 ft 27 kts 41°
2026-05-05 13:41 53.34520 -2.28527 251 ft 20 kts 21°
2026-05-05 13:41 53.34628 -2.28461 254 ft 13 kts 24°
2026-05-05 13:41 53.34696 -2.28409 254 ft 8 kts 30°
2026-05-05 13:42 53.34727 -2.28369 254 ft 3 kts 47°
2026-05-05 13:42 53.34731 -2.28362 254 ft 0 kts 47°
2026-05-05 13:42 53.34731 -2.28361 254 ft 0 kts 47°
2026-05-05 13:43 53.34743 -2.28339 254 ft 10 kts 59°
2026-05-05 13:43 53.34820 -2.28178 254 ft 25 kts 52°
2026-05-05 13:43 53.34939 -2.27958 253 ft 16 kts
2026-05-05 13:43 53.34964 -2.27972 251 ft 0 kts 323°
2026-05-05 13:44 53.35000 -2.28021 250 ft 15 kts 322°
2026-05-05 13:44 53.35116 -2.28176 248 ft 23 kts 323°
2026-05-05 13:44 53.35209 -2.28198 248 ft 0 kts
2026-05-05 13:46 53.35246 -2.28190 248 ft 10 kts
2026-05-05 13:47 53.35327 -2.28132 247 ft 18 kts 45°
2026-05-05 13:47 53.35434 -2.27960 245 ft 21 kts 45°
2026-05-05 13:47 53.35571 -2.27906 245 ft 27 kts
2026-05-05 13:47 53.35720 -2.27877 244 ft 21 kts
2026-05-05 13:48 53.35830 -2.27861 244 ft 0 kts 360°
2026-05-05 13:48 53.35840 -2.27879 244 ft 6 kts 281°
2026-05-05 13:48 53.35816 -2.28001 246 ft 17 kts 242°
2026-05-05 13:49 53.35765 -2.28194 248 ft 20 kts 258°
2026-05-05 13:49 53.35783 -2.28290 248 ft 0 kts 337°